TimeCST,TemperatureF,Dew PointF,Humidity,Sea Level PressureIn,VisibilityMPH,Wind Direction,Wind SpeedMPH,Gust SpeedMPH,PrecipitationIn,Events,Conditions,WindDirDegrees,DateUTC
12:12 AM,21.9,16.5,80,30.00,10.0,WNW,4.6,-,N/A,,Scattered Clouds,300,2013-01-06 06:12:00
12:32 AM,22.1,16.7,80,30.01,10.0,WNW,4.6,-,N/A,,Overcast,300,2013-01-06 06:32:00
12:52 AM,22.1,16.7,80,30.02,10.0,WNW,9.2,-,N/A,,Overcast,300,2013-01-06 06:52:00
1:12 AM,22.6,17.2,80,30.02,10.0,WNW,9.2,-,N/A,,Overcast,300,2013-01-06 07:12:00
1:32 AM,22.3,16.7,79,30.02,10.0,WNW,8.1,-,N/A,,Scattered Clouds,300,2013-01-06 07:32:00
1:52 AM,20.7,15.6,81,30.03,10.0,WNW,8.1,-,N/A,,Clear,290,2013-01-06 07:52:00
2:12 AM,19.9,15.3,82,30.04,10.0,WNW,5.8,-,N/A,,Clear,290,2013-01-06 08:12:00
2:32 AM,19.4,14.9,83,30.04,10.0,WNW,6.9,-,N/A,,Clear,300,2013-01-06 08:32:00
2:52 AM,19.4,15.3,84,30.05,10.0,WNW,9.2,-,N/A,,Clear,300,2013-01-06 08:52:00
3:12 AM,19.4,14.9,83,30.06,10.0,WNW,9.2,-,N/A,,Clear,290,2013-01-06 09:12:00
3:32 AM,19.4,14.9,83,30.06,10.0,NW,6.9,-,N/A,,Clear,310,2013-01-06 09:32:00
4:12 AM,20.7,15.8,81,30.07,10.0,NW,10.4,-,N/A,,Scattered Clouds,320,2013-01-06 10:12:00
4:32 AM,20.3,15.6,82,30.07,10.0,NW,9.2,-,N/A,,Overcast,320,2013-01-06 10:32:00
4:52 AM,20.3,15.6,82,30.09,10.0,WNW,10.4,-,N/A,,Mostly Cloudy,300,2013-01-06 10:52:00
5:12 AM,19.4,14.9,83,30.09,10.0,WNW,6.9,-,N/A,,Mostly Cloudy,290,2013-01-06 11:12:00
5:32 AM,18.5,14.4,84,30.09,10.0,WNW,4.6,-,N/A,,Scattered Clouds,290,2013-01-06 11:32:00
6:32 AM,17.1,13.5,86,30.13,10.0,NW,6.9,-,N/A,,Clear,310,2013-01-06 12:32:00
6:52 AM,16.3,12.6,85,30.14,10.0,NW,5.8,-,N/A,,Clear,310,2013-01-06 12:52:00
7:12 AM,15.8,11.8,84,30.15,10.0,WNW,4.6,-,N/A,,Clear,290,2013-01-06 13:12:00
7:32 AM,15.4,10.9,82,30.16,10.0,WNW,3.5,-,N/A,,Clear,290,2013-01-06 13:32:00
7:52 AM,14.5,9.5,80,30.16,10.0,WNW,5.8,-,N/A,,Clear,290,2013-01-06 13:52:00
8:12 AM,14.4,8.6,78,30.17,10.0,WNW,4.6,-,N/A,,Clear,300,2013-01-06 14:12:00
8:32 AM,14.5,8.2,76,30.18,10.0,WNW,5.8,-,N/A,,Clear,300,2013-01-06 14:32:00
8:52 AM,14.9,7.7,73,30.19,10.0,WNW,5.8,-,N/A,,Clear,300,2013-01-06 14:52:00
9:12 AM,15.4,7.7,71,30.19,10.0,NW,4.6,-,N/A,,Clear,320,2013-01-06 15:12:00
9:32 AM,16.0,7.7,70,30.19,10.0,NW,5.8,-,N/A,,Clear,320,2013-01-06 15:32:00
9:52 AM,16.9,7.7,67,30.20,10.0,NW,6.9,-,N/A,,Clear,310,2013-01-06 15:52:00
10:12 AM,17.6,7.7,65,30.20,10.0,NW,5.8,-,N/A,,Clear,310,2013-01-06 16:12:00
10:32 AM,18.3,8.2,65,30.20,10.0,NNW,4.6,-,N/A,,Clear,330,2013-01-06 16:32:00
10:52 AM,19.2,8.6,63,30.22,10.0,NW,5.8,-,N/A,,Clear,310,2013-01-06 16:52:00
11:12 AM,19.9,9.0,62,30.21,10.0,NW,4.6,-,N/A,,Clear,310,2013-01-06 17:12:00
11:32 AM,20.7,9.0,61,30.20,10.0,WNW,4.6,-,N/A,,Clear,300,2013-01-06 17:32:00
12:12 PM,21.7,9.7,60,30.20,10.0,WSW,5.8,-,N/A,,Clear,250,2013-01-06 18:12:00
12:32 PM,22.1,10.4,61,30.20,10.0,West,6.9,-,N/A,,Clear,260,2013-01-06 18:32:00
12:52 PM,23.0,10.4,59,30.19,10.0,West,4.6,-,N/A,,Clear,260,2013-01-06 18:52:00
1:12 PM,23.4,10.4,58,30.18,10.0,WSW,3.5,-,N/A,,Clear,250,2013-01-06 19:12:00
1:32 PM,23.9,10.9,58,30.18,10.0,SW,6.9,-,N/A,,Clear,230,2013-01-06 19:32:00
1:52 PM,23.9,10.9,58,30.17,10.0,SSW,4.6,-,N/A,,Clear,210,2013-01-06 19:52:00
2:12 PM,24.6,10.8,56,30.18,10.0,WSW,5.8,-,N/A,,Clear,250,2013-01-06 20:12:00
2:32 PM,24.6,10.6,55,30.19,10.0,WSW,3.5,-,N/A,,Clear,250,2013-01-06 20:32:00
2:52 PM,24.6,10.4,55,30.19,10.0,WSW,4.6,-,N/A,,Clear,250,2013-01-06 20:52:00
3:12 PM,24.6,10.4,55,30.19,10.0,West,3.5,-,N/A,,Clear,260,2013-01-06 21:12:00
3:32 PM,24.6,11.1,57,30.20,10.0,West,4.6,-,N/A,,Clear,260,2013-01-06 21:32:00
3:52 PM,24.1,11.3,58,30.19,10.0,South,4.6,-,N/A,,Clear,190,2013-01-06 21:52:00
4:12 PM,23.0,11.3,61,30.19,10.0,SSW,4.6,-,N/A,,Clear,210,2013-01-06 22:12:00
4:32 PM,22.1,11.1,63,30.19,10.0,SSW,4.6,-,N/A,,Clear,210,2013-01-06 22:32:00
4:52 PM,21.0,11.1,66,30.19,10.0,South,6.9,-,N/A,,Clear,190,2013-01-06 22:52:00
5:12 PM,19.9,11.1,69,30.18,10.0,South,5.8,-,N/A,,Clear,190,2013-01-06 23:12:00
5:32 PM,19.4,10.9,70,30.18,10.0,SSW,6.9,-,N/A,,Clear,200,2013-01-06 23:32:00
6:12 PM,18.3,10.4,71,30.19,10.0,South,4.6,-,N/A,,Clear,180,2013-01-07 00:12:00
6:32 PM,18.3,10.9,73,30.17,10.0,South,3.5,-,N/A,,Clear,180,2013-01-07 00:32:00
6:52 PM,17.2,10.6,75,30.18,10.0,Calm,Calm,-,N/A,,Clear,0,2013-01-07 00:52:00
7:12 PM,17.1,10.8,76,30.17,10.0,SSE,3.5,-,N/A,,Clear,150,2013-01-07 01:12:00
7:32 PM,16.2,10.2,77,30.18,10.0,South,3.5,-,N/A,,Clear,180,2013-01-07 01:32:00
7:52 PM,15.6,10.2,79,30.17,10.0,SSE,4.6,-,N/A,,Clear,150,2013-01-07 01:52:00
8:12 PM,14.9,9.9,80,30.16,10.0,SSE,3.5,-,N/A,,Clear,160,2013-01-07 02:12:00
8:32 PM,14.5,9.9,82,30.15,10.0,SSE,5.8,-,N/A,,Clear,150,2013-01-07 02:32:00
9:12 PM,13.8,9.5,83,30.12,10.0,SSE,4.6,-,N/A,,Clear,160,2013-01-07 03:12:00
9:32 PM,14.4,10.4,84,30.11,10.0,South,5.8,-,N/A,,Clear,170,2013-01-07 03:32:00
9:52 PM,14.4,9.9,82,30.10,10.0,SSE,3.5,-,N/A,,Clear,150,2013-01-07 03:52:00
10:12 PM,14.0,9.9,84,30.09,10.0,SSE,4.6,-,N/A,,Clear,150,2013-01-07 04:12:00
10:32 PM,14.4,10.0,83,30.08,10.0,SE,5.8,-,N/A,,Clear,140,2013-01-07 04:32:00
10:52 PM,14.5,10.0,82,30.07,10.0,SSE,4.6,-,N/A,,Clear,150,2013-01-07 04:52:00
11:32 PM,14.9,10.6,83,30.07,10.0,SSE,3.5,-,N/A,,Clear,160,2013-01-07 05:32:00
11:52 PM,14.9,10.8,84,30.05,10.0,SSE,4.6,-,N/A,,Clear,150,2013-01-07 05:52:00